Year,Month,Day,Hour,Minute,Value (Times are PST for temperature in C)
2011,04,28,00,00,2.20
2011,04,28,00,01,2.20
2011,04,28,00,02,2.20
2011,04,28,00,03,2.20
2011,04,28,00,04,2.20
2011,04,28,00,05,2.20
2011,04,28,00,06,2.20
2011,04,28,00,07,2.20
2011,04,28,00,08,2.20
2011,04,28,00,09,2.20
2011,04,28,00,10,2.20
2011,04,28,00,11,2.20
2011,04,28,00,12,2.20
2011,04,28,00,13,2.20
2011,04,28,00,14,2.20
2011,04,28,00,15,2.20
2011,04,28,00,16,2.20
2011,04,28,00,17,2.20
2011,04,28,00,18,2.10
2011,04,28,00,19,2.10
2011,04,28,00,20,2.10
2011,04,28,00,21,2.10
2011,04,28,00,22,2.10
2011,04,28,00,23,2.00
2011,04,28,00,24,2.00
2011,04,28,00,25,2.00
2011,04,28,00,26,1.90
2011,04,28,00,27,1.90
2011,04,28,00,28,1.90
2011,04,28,00,29,1.90
2011,04,28,00,30,1.90
2011,04,28,00,31,1.90
2011,04,28,00,32,1.90
2011,04,28,00,33,2.00
2011,04,28,00,34,2.00
2011,04,28,00,35,2.00
2011,04,28,00,36,2.00
2011,04,28,00,37,2.10
2011,04,28,00,38,2.10
2011,04,28,00,39,2.10
2011,04,28,00,40,2.20
2011,04,28,00,41,2.20
2011,04,28,00,42,2.20
2011,04,28,00,43,2.20
2011,04,28,00,44,2.20
2011,04,28,00,45,2.20
2011,04,28,00,46,2.30
2011,04,28,00,47,2.30
2011,04,28,00,48,2.30
2011,04,28,00,49,2.30
2011,04,28,00,50,2.30
2011,04,28,00,51,2.30
2011,04,28,00,52,2.30
2011,04,28,00,53,2.30
2011,04,28,00,54,2.30
2011,04,28,00,55,2.30
2011,04,28,00,56,2.30
2011,04,28,00,57,2.30
2011,04,28,00,58,2.30
2011,04,28,00,59,2.30
2011,04,28,01,00,2.30
2011,04,28,01,01,2.30
2011,04,28,01,02,2.30
2011,04,28,01,03,2.30
2011,04,28,01,04,2.30
2011,04,28,01,05,2.30
2011,04,28,01,06,2.30
2011,04,28,01,07,2.40
2011,04,28,01,08,2.40
2011,04,28,01,09,2.40
2011,04,28,01,10,2.40
2011,04,28,01,11,2.40
2011,04,28,01,12,2.40
2011,04,28,01,13,2.50
2011,04,28,01,14,2.50
2011,04,28,01,15,2.50
2011,04,28,01,16,2.50
2011,04,28,01,17,2.50
2011,04,28,01,18,2.60
2011,04,28,01,19,2.60
2011,04,28,01,20,2.60
2011,04,28,01,21,2.70
2011,04,28,01,22,2.70
2011,04,28,01,23,2.70
2011,04,28,01,24,2.70
2011,04,28,01,25,2.70
2011,04,28,01,26,2.70
2011,04,28,01,27,2.80
2011,04,28,01,28,2.80
2011,04,28,01,29,2.80
2011,04,28,01,30,2.90
2011,04,28,01,31,2.90
2011,04,28,01,32,2.90
2011,04,28,01,33,2.90
2011,04,28,01,34,2.90
2011,04,28,01,35,2.90
2011,04,28,01,36,2.90
2011,04,28,01,37,2.90
2011,04,28,01,38,3.00
2011,04,28,01,39,3.10
2011,04,28,01,40,3.10
2011,04,28,01,41,3.10
2011,04,28,01,42,3.10
2011,04,28,01,43,3.10
2011,04,28,01,44,3.10
2011,04,28,01,45,3.10
2011,04,28,01,46,3.10
2011,04,28,01,47,3.10
2011,04,28,01,48,3.20
2011,04,28,01,49,3.20
2011,04,28,01,50,3.20
2011,04,28,01,51,3.20
2011,04,28,01,52,3.20
2011,04,28,01,53,3.20
2011,04,28,01,54,3.20
2011,04,28,01,55,3.20
2011,04,28,01,56,3.30
2011,04,28,01,57,3.30
2011,04,28,01,58,3.30
2011,04,28,01,59,3.30
2011,04,28,02,00,3.30
2011,04,28,02,01,3.30
2011,04,28,02,02,3.30
2011,04,28,02,03,3.30
2011,04,28,02,04,3.30
2011,04,28,02,05,3.30
2011,04,28,02,06,3.30
2011,04,28,02,07,3.30
2011,04,28,02,08,3.30
2011,04,28,02,09,3.30
2011,04,28,02,10,3.30
2011,04,28,02,11,3.30
2011,04,28,02,12,3.30
2011,04,28,02,13,3.30
2011,04,28,02,14,3.30
2011,04,28,02,15,3.30
2011,04,28,02,16,3.30
2011,04,28,02,17,3.30
2011,04,28,02,18,3.30
2011,04,28,02,19,3.30
2011,04,28,02,20,3.30
2011,04,28,02,21,3.30
2011,04,28,02,22,3.30
2011,04,28,02,23,3.30
2011,04,28,02,24,3.40
2011,04,28,02,25,3.40
2011,04,28,02,26,3.50
2011,04,28,02,27,3.50
2011,04,28,02,28,3.60
2011,04,28,02,29,3.70
2011,04,28,02,30,3.70
2011,04,28,02,31,3.70
2011,04,28,02,32,3.80
2011,04,28,02,33,3.80
2011,04,28,02,34,3.80
2011,04,28,02,35,3.80
2011,04,28,02,36,3.80
2011,04,28,02,37,3.80
2011,04,28,02,38,3.80
2011,04,28,02,39,3.80
2011,04,28,02,40,3.80
2011,04,28,02,41,3.80
2011,04,28,02,42,3.80
2011,04,28,02,43,3.80
2011,04,28,02,44,3.80
2011,04,28,02,45,3.80
2011,04,28,02,46,3.80
2011,04,28,02,47,3.80
2011,04,28,02,48,3.80
2011,04,28,02,49,3.80
2011,04,28,02,50,3.80
2011,04,28,02,51,3.80
2011,04,28,02,52,3.70
2011,04,28,02,53,3.70
2011,04,28,02,54,3.70
2011,04,28,02,55,3.70
2011,04,28,02,56,3.70
2011,04,28,02,57,3.60
2011,04,28,02,58,3.60
2011,04,28,02,59,3.60
2011,04,28,03,00,3.60
2011,04,28,03,01,3.60
2011,04,28,03,02,3.70
2011,04,28,03,03,3.70
2011,04,28,03,04,3.70
2011,04,28,03,05,3.70
2011,04,28,03,06,3.60
2011,04,28,03,07,3.60
2011,04,28,03,08,3.60
2011,04,28,03,09,3.60
2011,04,28,03,10,3.60
2011,04,28,03,11,3.60
2011,04,28,03,12,3.60
2011,04,28,03,13,3.60
2011,04,28,03,14,3.60
2011,04,28,03,15,3.60
2011,04,28,03,16,3.60
2011,04,28,03,17,3.60
2011,04,28,03,18,3.60
2011,04,28,03,19,3.60
2011,04,28,03,20,3.60
2011,04,28,03,21,3.50
2011,04,28,03,22,3.50
2011,04,28,03,23,3.50
2011,04,28,03,24,3.50
2011,04,28,03,25,3.50
2011,04,28,03,26,3.50
2011,04,28,03,27,3.50
2011,04,28,03,28,3.50
2011,04,28,03,29,3.40
2011,04,28,03,30,3.40
2011,04,28,03,31,3.40
2011,04,28,03,32,3.40
2011,04,28,03,33,3.40
2011,04,28,03,34,3.40
2011,04,28,03,35,3.40
2011,04,28,03,36,3.50
2011,04,28,03,37,3.50
2011,04,28,03,38,3.50
2011,04,28,03,39,3.50
2011,04,28,03,40,3.50
2011,04,28,03,41,3.50
2011,04,28,03,42,3.60
2011,04,28,03,43,3.60
2011,04,28,03,44,3.60
2011,04,28,03,45,3.60
2011,04,28,03,46,3.60
2011,04,28,03,47,3.60
2011,04,28,03,48,3.60
2011,04,28,03,49,3.60
2011,04,28,03,50,3.60
2011,04,28,03,51,3.60
2011,04,28,03,52,3.60
2011,04,28,03,53,3.60
2011,04,28,03,54,3.60
2011,04,28,03,55,3.60
2011,04,28,03,56,3.60
2011,04,28,03,57,3.60
2011,04,28,03,58,3.60
2011,04,28,03,59,3.60
2011,04,28,04,00,3.60
2011,04,28,04,01,3.60
2011,04,28,04,02,3.60
2011,04,28,04,03,3.70
2011,04,28,04,04,3.70
2011,04,28,04,05,3.70
2011,04,28,04,06,3.70
2011,04,28,04,07,3.70
2011,04,28,04,08,3.70
2011,04,28,04,09,3.70
2011,04,28,04,10,3.70
2011,04,28,04,11,3.70
2011,04,28,04,12,3.70
2011,04,28,04,13,3.70
2011,04,28,04,14,3.70
2011,04,28,04,15,3.70
2011,04,28,04,16,3.70
2011,04,28,04,17,3.70
2011,04,28,04,18,3.70
2011,04,28,04,19,3.70
2011,04,28,04,20,3.70
2011,04,28,04,21,3.70
2011,04,28,04,22,3.70
2011,04,28,04,23,3.70
2011,04,28,04,24,3.70
2011,04,28,04,25,3.80
2011,04,28,04,26,3.80
2011,04,28,04,27,3.80
2011,04,28,04,28,3.80
2011,04,28,04,29,3.80
2011,04,28,04,30,3.80
2011,04,28,04,31,3.80
2011,04,28,04,32,3.80
2011,04,28,04,33,3.80
2011,04,28,04,34,3.80
2011,04,28,04,35,3.80
2011,04,28,04,36,3.80
2011,04,28,04,37,3.80
2011,04,28,04,38,3.80
2011,04,28,04,39,3.80
2011,04,28,04,40,3.80
2011,04,28,04,41,3.70
2011,04,28,04,42,3.70
2011,04,28,04,43,3.70
2011,04,28,04,44,3.70
2011,04,28,04,45,3.70
2011,04,28,04,46,3.60
2011,04,28,04,47,3.60
2011,04,28,04,48,3.60
2011,04,28,04,49,3.60
2011,04,28,04,50,3.60
2011,04,28,04,51,3.60
2011,04,28,04,52,3.50
2011,04,28,04,53,3.50
2011,04,28,04,54,3.50
2011,04,28,04,55,3.40
2011,04,28,04,56,3.40
2011,04,28,04,57,3.40
2011,04,28,04,58,3.30
2011,04,28,04,59,3.30
2011,04,28,05,00,3.30
2011,04,28,05,01,3.30
2011,04,28,05,02,3.30
2011,04,28,05,03,3.30
2011,04,28,05,04,3.30
2011,04,28,05,05,3.30
2011,04,28,05,06,3.30
2011,04,28,05,07,3.20
2011,04,28,05,08,3.20
2011,04,28,05,09,3.20
2011,04,28,05,10,3.20
2011,04,28,05,11,3.20
2011,04,28,05,12,3.10
2011,04,28,05,13,3.10
2011,04,28,05,14,3.10
2011,04,28,05,15,3.10
2011,04,28,05,16,3.10
2011,04,28,05,17,3.10
2011,04,28,05,18,3.10
2011,04,28,05,19,3.10
2011,04,28,05,20,3.10
2011,04,28,05,21,3.10
2011,04,28,05,22,3.10
2011,04,28,05,23,2.90
2011,04,28,05,24,2.90
2011,04,28,05,25,2.90
2011,04,28,05,26,2.90
2011,04,28,05,27,2.90
2011,04,28,05,28,2.90
2011,04,28,05,29,2.90
2011,04,28,05,30,2.90
2011,04,28,05,31,2.90
2011,04,28,05,32,2.90
2011,04,28,05,33,2.90
2011,04,28,05,34,2.90
2011,04,28,05,35,2.90
2011,04,28,05,36,2.90
2011,04,28,05,37,2.90
2011,04,28,05,38,2.90
2011,04,28,05,39,2.90
2011,04,28,05,40,2.90
2011,04,28,05,41,2.90
2011,04,28,05,42,2.90
2011,04,28,05,43,2.90
2011,04,28,05,44,2.90
2011,04,28,05,45,2.90
2011,04,28,05,46,2.90
2011,04,28,05,47,2.90
2011,04,28,05,48,2.90
2011,04,28,05,49,2.90
2011,04,28,05,50,2.90
2011,04,28,05,51,3.00
2011,04,28,05,52,3.10
2011,04,28,05,53,3.10
2011,04,28,05,54,3.10
2011,04,28,05,55,3.10
2011,04,28,05,56,3.10
2011,04,28,05,57,3.10
2011,04,28,05,58,3.10
2011,04,28,05,59,3.20
2011,04,28,06,00,3.20
2011,04,28,06,01,3.20
2011,04,28,06,02,3.20
2011,04,28,06,03,3.20
2011,04,28,06,04,3.20
2011,04,28,06,05,3.20
2011,04,28,06,06,3.20
2011,04,28,06,07,3.20
2011,04,28,06,08,3.10
2011,04,28,06,09,3.10
2011,04,28,06,10,3.10
2011,04,28,06,11,3.10
2011,04,28,06,12,3.10
2011,04,28,06,13,3.10
2011,04,28,06,14,3.10
2011,04,28,06,15,3.10
2011,04,28,06,16,3.10
2011,04,28,06,17,3.10
2011,04,28,06,18,3.10
2011,04,28,06,19,3.10
2011,04,28,06,20,3.10
2011,04,28,06,21,3.10
2011,04,28,06,22,3.10
2011,04,28,06,23,3.10
2011,04,28,06,24,3.10
2011,04,28,06,25,3.10
2011,04,28,06,26,3.20
2011,04,28,06,27,3.20
2011,04,28,06,28,3.20
2011,04,28,06,29,3.30
2011,04,28,06,30,3.30
2011,04,28,06,31,3.30
2011,04,28,06,32,3.30
2011,04,28,06,33,3.30
2011,04,28,06,34,3.30
2011,04,28,06,35,3.30
2011,04,28,06,36,3.30
2011,04,28,06,37,3.30
2011,04,28,06,38,3.40
2011,04,28,06,39,3.40
2011,04,28,06,40,3.40
2011,04,28,06,41,3.40
2011,04,28,06,42,3.50
2011,04,28,06,43,3.50
2011,04,28,06,44,3.50
2011,04,28,06,45,3.60
2011,04,28,06,46,3.60
2011,04,28,06,47,3.60
2011,04,28,06,48,3.60
2011,04,28,06,49,3.60
2011,04,28,06,50,3.60
2011,04,28,06,51,3.60
2011,04,28,06,52,3.70
2011,04,28,06,53,3.70
2011,04,28,06,54,3.70
2011,04,28,06,55,3.70
2011,04,28,06,56,3.70
2011,04,28,06,57,3.70
2011,04,28,06,58,3.70
2011,04,28,06,59,3.70
2011,04,28,07,00,3.80
2011,04,28,07,01,3.80
2011,04,28,07,02,3.80
2011,04,28,07,03,3.80
2011,04,28,07,04,3.80
2011,04,28,07,05,3.80
2011,04,28,07,06,3.90
2011,04,28,07,07,3.90
2011,04,28,07,08,3.90
2011,04,28,07,09,3.90
2011,04,28,07,10,3.90
2011,04,28,07,11,3.90
2011,04,28,07,12,4.00
2011,04,28,07,13,4.00
2011,04,28,07,14,4.00
2011,04,28,07,15,4.00
2011,04,28,07,16,4.00
2011,04,28,07,17,4.00
2011,04,28,07,18,4.00
2011,04,28,07,19,4.10
2011,04,28,07,20,4.10
2011,04,28,07,21,4.10
2011,04,28,07,22,4.10
2011,04,28,07,23,4.10
2011,04,28,07,24,4.20
2011,04,28,07,25,4.20
2011,04,28,07,26,4.20
2011,04,28,07,27,4.20
2011,04,28,07,28,4.20
2011,04,28,07,29,4.20
2011,04,28,07,30,4.20
2011,04,28,07,31,4.20
2011,04,28,07,32,4.20
2011,04,28,07,33,4.30
2011,04,28,07,34,4.30
2011,04,28,07,35,4.30
2011,04,28,07,36,4.30
2011,04,28,07,37,4.30
2011,04,28,07,38,4.30
2011,04,28,07,39,4.40
2011,04,28,07,40,4.40
2011,04,28,07,41,4.40
2011,04,28,07,42,4.40
2011,04,28,07,43,4.40
2011,04,28,07,44,4.50
2011,04,28,07,45,4.50
2011,04,28,07,46,4.50
2011,04,28,07,47,4.60
2011,04,28,07,48,4.60
2011,04,28,07,49,4.60
2011,04,28,07,50,4.60
2011,04,28,07,51,4.60
2011,04,28,07,52,4.60
2011,04,28,07,53,4.60
2011,04,28,07,54,4.70
2011,04,28,07,55,4.70
2011,04,28,07,56,4.70
2011,04,28,07,57,4.70
2011,04,28,07,58,4.70
2011,04,28,07,59,4.70
2011,04,28,08,00,4.80
2011,04,28,08,01,4.80
2011,04,28,08,02,4.80
2011,04,28,08,03,4.80
2011,04,28,08,04,4.80
2011,04,28,08,05,4.80
2011,04,28,08,06,4.80
2011,04,28,08,07,4.80
2011,04,28,08,08,4.80
2011,04,28,08,09,4.90
2011,04,28,08,10,4.90
2011,04,28,08,11,4.90
2011,04,28,08,12,4.90
2011,04,28,08,13,4.90
2011,04,28,08,14,4.90
2011,04,28,08,15,4.90
2011,04,28,08,16,4.90
2011,04,28,08,17,5.00
2011,04,28,08,18,5.10
2011,04,28,08,19,5.10
2011,04,28,08,20,5.10
2011,04,28,08,21,5.10
2011,04,28,08,22,5.20
2011,04,28,08,23,5.20
2011,04,28,08,24,5.30
2011,04,28,08,25,5.30
2011,04,28,08,26,5.30
2011,04,28,08,27,5.30
2011,04,28,08,28,5.40
2011,04,28,08,29,5.40
2011,04,28,08,30,5.40
2011,04,28,08,31,5.40
2011,04,28,08,32,5.40
2011,04,28,08,33,5.40
2011,04,28,08,34,5.50
2011,04,28,08,35,5.40
2011,04,28,08,36,5.40
2011,04,28,08,37,5.40
2011,04,28,08,38,5.40
2011,04,28,08,39,5.40
2011,04,28,08,40,5.40
2011,04,28,08,41,5.50
2011,04,28,08,42,5.50
2011,04,28,08,43,5.50
2011,04,28,08,44,5.60
2011,04,28,08,45,5.60
2011,04,28,08,46,5.60
2011,04,28,08,47,5.70
2011,04,28,08,48,5.70
2011,04,28,08,49,5.70
2011,04,28,08,50,5.70
2011,04,28,08,51,5.70
2011,04,28,08,52,5.70
2011,04,28,08,53,5.70
2011,04,28,08,54,5.70
2011,04,28,08,55,5.70
2011,04,28,08,56,5.80
2011,04,28,08,57,5.80
2011,04,28,08,58,5.70
2011,04,28,08,59,5.70
2011,04,28,09,00,5.80
2011,04,28,09,01,5.80
2011,04,28,09,02,5.80
2011,04,28,09,03,5.90
2011,04,28,09,04,5.90
2011,04,28,09,05,6.00
2011,04,28,09,06,6.10
2011,04,28,09,07,6.10
2011,04,28,09,08,6.00
2011,04,28,09,09,6.00
2011,04,28,09,10,6.10
2011,04,28,09,11,6.10
2011,04,28,09,12,6.10
2011,04,28,09,13,6.10
2011,04,28,09,14,6.20
2011,04,28,09,15,6.30
2011,04,28,09,16,6.40
2011,04,28,09,17,6.50
2011,04,28,09,18,6.60
2011,04,28,09,19,6.60
2011,04,28,09,20,6.50
2011,04,28,09,21,6.40
2011,04,28,09,22,6.40
2011,04,28,09,23,6.50
2011,04,28,09,24,6.60
2011,04,28,09,25,6.60
2011,04,28,09,26,6.60
2011,04,28,09,27,6.60
2011,04,28,09,28,6.70
2011,04,28,09,29,6.80
2011,04,28,09,30,6.80
2011,04,28,09,31,6.90
2011,04,28,09,32,7.00
2011,04,28,09,33,7.00
2011,04,28,09,34,7.10
2011,04,28,09,35,7.20
2011,04,28,09,36,7.20
2011,04,28,09,37,7.10
2011,04,28,09,38,7.00
2011,04,28,09,39,7.10
2011,04,28,09,40,7.10
2011,04,28,09,41,7.10
2011,04,28,09,42,7.10
2011,04,28,09,43,7.20
2011,04,28,09,44,7.20
2011,04,28,09,45,7.10
2011,04,28,09,46,7.10
2011,04,28,09,47,7.20
2011,04,28,09,48,7.20
2011,04,28,09,49,7.30
2011,04,28,09,50,7.30
2011,04,28,09,51,7.30
2011,04,28,09,52,7.40
2011,04,28,09,53,7.40
2011,04,28,09,54,7.30
2011,04,28,09,55,7.40
2011,04,28,09,56,7.50
2011,04,28,09,57,7.60
2011,04,28,09,58,7.60
2011,04,28,09,59,7.60
2011,04,28,10,00,7.60
2011,04,28,10,01,7.60
2011,04,28,10,02,7.60
2011,04,28,10,03,7.60
2011,04,28,10,04,7.60
2011,04,28,10,05,7.50
2011,04,28,10,06,7.50
2011,04,28,10,07,7.40
2011,04,28,10,08,7.30
2011,04,28,10,09,7.30
2011,04,28,10,10,7.30
2011,04,28,10,11,7.30
2011,04,28,10,12,7.30
2011,04,28,10,13,7.30
2011,04,28,10,14,7.20
2011,04,28,10,15,7.10
2011,04,28,10,16,7.10
2011,04,28,10,17,7.10
2011,04,28,10,18,7.10
2011,04,28,10,19,7.10
2011,04,28,10,20,7.10
2011,04,28,10,21,7.10
2011,04,28,10,22,7.20
2011,04,28,10,23,7.20
2011,04,28,10,24,7.30
2011,04,28,10,25,7.30
2011,04,28,10,26,7.30
2011,04,28,10,27,7.30
2011,04,28,10,28,7.50
2011,04,28,10,29,7.50
2011,04,28,10,30,7.60
2011,04,28,10,31,7.60
2011,04,28,10,32,7.60
2011,04,28,10,33,7.70
2011,04,28,10,34,7.70
2011,04,28,10,35,7.80
2011,04,28,10,36,7.80
2011,04,28,10,37,7.80
2011,04,28,10,38,8.00
2011,04,28,10,39,8.10
2011,04,28,10,40,8.20
2011,04,28,10,41,8.30
2011,04,28,10,42,8.30
2011,04,28,10,43,8.30
2011,04,28,10,44,8.30
2011,04,28,10,45,8.30
2011,04,28,10,46,8.40
2011,04,28,10,47,8.40
2011,04,28,10,48,8.50
2011,04,28,10,49,8.50
2011,04,28,10,50,8.40
2011,04,28,10,51,8.40
2011,04,28,10,52,8.40
2011,04,28,10,53,8.30
2011,04,28,10,54,8.30
2011,04,28,10,55,8.30
2011,04,28,10,56,8.30
2011,04,28,10,57,8.30
2011,04,28,10,58,8.40
2011,04,28,10,59,8.40
2011,04,28,11,00,8.50
2011,04,28,11,01,8.50
2011,04,28,11,02,8.60
2011,04,28,11,03,8.60
2011,04,28,11,04,8.50
2011,04,28,11,05,8.40
2011,04,28,11,06,8.30
2011,04,28,11,07,8.20
2011,04,28,11,08,8.20
2011,04,28,11,09,8.20
2011,04,28,11,10,8.20
2011,04,28,11,11,8.10
2011,04,28,11,12,8.10
2011,04,28,11,13,8.10
2011,04,28,11,14,8.10
2011,04,28,11,15,8.20
2011,04,28,11,16,8.20
2011,04,28,11,17,8.30
2011,04,28,11,18,8.40
2011,04,28,11,19,8.40
2011,04,28,11,20,8.50
2011,04,28,11,21,8.60
2011,04,28,11,22,8.50
2011,04,28,11,23,8.50
2011,04,28,11,24,8.50
2011,04,28,11,25,8.50
2011,04,28,11,26,8.50
2011,04,28,11,27,8.50
2011,04,28,11,28,8.50
2011,04,28,11,29,8.50
2011,04,28,11,30,8.60
2011,04,28,11,31,8.60
2011,04,28,11,32,8.60
2011,04,28,11,33,8.50
2011,04,28,11,34,8.30
2011,04,28,11,35,8.10
2011,04,28,11,36,8.00
2011,04,28,11,37,8.00
2011,04,28,11,38,7.90
2011,04,28,11,39,7.90
2011,04,28,11,40,7.90
2011,04,28,11,41,8.00
2011,04,28,11,42,8.10
2011,04,28,11,43,8.20
2011,04,28,11,44,8.20
2011,04,28,11,45,8.10
2011,04,28,11,46,8.00
2011,04,28,11,47,8.00
2011,04,28,11,48,8.10
2011,04,28,11,49,8.10
2011,04,28,11,50,8.10
2011,04,28,11,51,8.00
2011,04,28,11,52,8.00
2011,04,28,11,53,8.00
2011,04,28,11,54,8.00
2011,04,28,11,55,8.10
2011,04,28,11,56,8.10
2011,04,28,11,57,8.10
2011,04,28,11,58,8.10
2011,04,28,11,59,8.20
2011,04,28,12,00,8.20
2011,04,28,12,01,8.10
2011,04,28,12,02,8.00
2011,04,28,12,03,8.00
2011,04,28,12,04,7.90
2011,04,28,12,05,7.90
2011,04,28,12,06,7.90
2011,04,28,12,07,8.00
2011,04,28,12,08,8.00
2011,04,28,12,09,8.00
2011,04,28,12,10,8.00
2011,04,28,12,11,8.10
2011,04,28,12,12,8.20
2011,04,28,12,13,8.20
2011,04,28,12,14,8.20
2011,04,28,12,15,8.10
2011,04,28,12,16,8.00
2011,04,28,12,17,8.00
2011,04,28,12,18,8.00
2011,04,28,12,19,8.00
2011,04,28,12,20,8.10
2011,04,28,12,21,8.20
2011,04,28,12,22,8.40
2011,04,28,12,23,8.50
2011,04,28,12,24,8.60
2011,04,28,12,25,8.60
2011,04,28,12,26,8.60
2011,04,28,12,27,8.50
2011,04,28,12,28,8.40
2011,04,28,12,29,8.30
2011,04,28,12,30,8.20
2011,04,28,12,31,8.00
2011,04,28,12,32,7.90
2011,04,28,12,33,7.90
2011,04,28,12,34,8.00
2011,04,28,12,35,8.00
2011,04,28,12,36,8.10
2011,04,28,12,37,8.20
2011,04,28,12,38,8.40
2011,04,28,12,39,8.40
2011,04,28,12,40,8.50
2011,04,28,12,41,8.40
2011,04,28,12,42,8.40
2011,04,28,12,43,8.50
2011,04,28,12,44,8.50
2011,04,28,12,45,8.40
2011,04,28,12,46,8.30
2011,04,28,12,47,8.30
2011,04,28,12,48,8.40
2011,04,28,12,49,8.60
2011,04,28,12,50,8.70
2011,04,28,12,51,8.70
2011,04,28,12,52,8.70
2011,04,28,12,53,8.70
2011,04,28,12,54,8.80
2011,04,28,12,55,8.90
2011,04,28,12,56,8.90
2011,04,28,12,57,8.90
2011,04,28,12,58,8.80
2011,04,28,12,59,8.80
2011,04,28,13,00,8.70
2011,04,28,13,01,8.70
2011,04,28,13,02,8.60
2011,04,28,13,03,8.60
2011,04,28,13,04,8.60
2011,04,28,13,05,8.50
2011,04,28,13,06,8.40
2011,04,28,13,07,8.40
2011,04,28,13,08,8.40
2011,04,28,13,09,8.50
2011,04,28,13,10,8.50
2011,04,28,13,11,8.50
2011,04,28,13,12,8.50
2011,04,28,13,13,8.40
2011,04,28,13,14,8.40
2011,04,28,13,15,8.40
2011,04,28,13,16,8.40
2011,04,28,13,17,8.40
2011,04,28,13,18,8.50
2011,04,28,13,19,8.50
2011,04,28,13,20,8.60
2011,04,28,13,21,8.70
2011,04,28,13,22,8.70
2011,04,28,13,23,8.70
2011,04,28,13,24,8.60
2011,04,28,13,25,8.50
2011,04,28,13,26,8.40
2011,04,28,13,27,8.30
2011,04,28,13,28,8.20
2011,04,28,13,29,8.20
2011,04,28,13,30,8.20
2011,04,28,13,31,8.20
2011,04,28,13,32,8.20
2011,04,28,13,33,8.20
2011,04,28,13,34,8.20
2011,04,28,13,35,8.20
2011,04,28,13,36,8.40
2011,04,28,13,37,8.60
2011,04,28,13,38,8.90
2011,04,28,13,39,9.00
2011,04,28,13,40,9.10
2011,04,28,13,41,9.00
2011,04,28,13,42,8.90
2011,04,28,13,43,8.70
2011,04,28,13,44,8.70
2011,04,28,13,45,8.70
2011,04,28,13,46,8.70
2011,04,28,13,47,8.70
2011,04,28,13,48,8.70
2011,04,28,13,49,8.70
2011,04,28,13,50,8.60
2011,04,28,13,51,8.60
2011,04,28,13,52,8.50
2011,04,28,13,53,8.50
2011,04,28,13,54,8.50
2011,04,28,13,55,8.50
2011,04,28,13,56,8.60
2011,04,28,13,57,8.50
2011,04,28,13,58,8.40
2011,04,28,13,59,8.40
2011,04,28,14,00,8.30
2011,04,28,14,01,8.30
2011,04,28,14,02,8.20
2011,04,28,14,03,8.20
2011,04,28,14,04,8.20
2011,04,28,14,05,8.20
2011,04,28,14,06,8.20
2011,04,28,14,07,8.30
2011,04,28,14,08,8.30
2011,04,28,14,09,8.30
2011,04,28,14,10,8.30
2011,04,28,14,11,8.40
2011,04,28,14,12,8.50
2011,04,28,14,13,8.60
2011,04,28,14,14,8.70
2011,04,28,14,15,8.70
2011,04,28,14,16,8.60
2011,04,28,14,17,8.50
2011,04,28,14,18,8.50
2011,04,28,14,19,8.50
2011,04,28,14,20,8.70
2011,04,28,14,21,8.70
2011,04,28,14,22,8.60
2011,04,28,14,23,8.60
2011,04,28,14,24,8.60
2011,04,28,14,25,8.60
2011,04,28,14,26,8.60
2011,04,28,14,27,8.60
2011,04,28,14,28,8.50
2011,04,28,14,29,8.50
2011,04,28,14,30,8.60
2011,04,28,14,31,8.60
2011,04,28,14,32,8.60
2011,04,28,14,33,8.60
2011,04,28,14,34,8.70
2011,04,28,14,35,8.80
2011,04,28,14,36,8.80
2011,04,28,14,37,8.80
2011,04,28,14,38,8.90
2011,04,28,14,39,8.90
2011,04,28,14,40,9.00
2011,04,28,14,41,9.10
2011,04,28,14,42,9.20
2011,04,28,14,43,9.20
2011,04,28,14,44,9.30
2011,04,28,14,45,9.30
2011,04,28,14,46,9.40
2011,04,28,14,47,9.50
2011,04,28,14,48,9.50
2011,04,28,14,49,9.70
2011,04,28,14,50,9.70
2011,04,28,14,51,9.80
2011,04,28,14,52,9.70
2011,04,28,14,53,9.70
2011,04,28,14,54,9.70
2011,04,28,14,55,9.80
2011,04,28,14,56,9.80
2011,04,28,14,57,9.90
2011,04,28,14,58,9.90
2011,04,28,14,59,9.70
2011,04,28,15,00,9.60
2011,04,28,15,01,9.60
2011,04,28,15,02,9.80
2011,04,28,15,03,9.70
2011,04,28,15,04,9.80
2011,04,28,15,05,9.90
2011,04,28,15,06,10.10
2011,04,28,15,07,10.10
2011,04,28,15,08,10.00
2011,04,28,15,09,10.00
2011,04,28,15,10,10.00
2011,04,28,15,11,9.90
2011,04,28,15,12,9.90
2011,04,28,15,13,9.90
2011,04,28,15,14,9.90
2011,04,28,15,15,10.00
2011,04,28,15,16,10.00
2011,04,28,15,17,10.00
2011,04,28,15,18,9.90
2011,04,28,15,19,9.80
2011,04,28,15,20,9.80
2011,04,28,15,21,9.80
2011,04,28,15,22,9.90
2011,04,28,15,23,10.10
2011,04,28,15,24,10.30
2011,04,28,15,25,10.50
2011,04,28,15,26,10.70
2011,04,28,15,27,10.80
2011,04,28,15,28,10.90
2011,04,28,15,29,11.00
2011,04,28,15,30,11.20
2011,04,28,15,31,11.20
2011,04,28,15,32,11.10
2011,04,28,15,33,11.10
2011,04,28,15,34,11.10
2011,04,28,15,35,11.10
2011,04,28,15,36,10.90
2011,04,28,15,37,10.90
2011,04,28,15,38,10.90
2011,04,28,15,39,10.90
2011,04,28,15,40,11.10
2011,04,28,15,41,11.00
2011,04,28,15,42,11.00
2011,04,28,15,43,11.00
2011,04,28,15,44,11.10
2011,04,28,15,45,11.10
2011,04,28,15,46,11.20
2011,04,28,15,47,11.30
2011,04,28,15,48,11.30
2011,04,28,15,49,11.20
2011,04,28,15,50,11.00
2011,04,28,15,51,10.80
2011,04,28,15,52,10.60
2011,04,28,15,53,10.60
2011,04,28,15,54,10.60
2011,04,28,15,55,10.60
2011,04,28,15,56,10.60
2011,04,28,15,57,10.60
2011,04,28,15,58,10.70
2011,04,28,15,59,10.80
2011,04,28,16,00,10.90
2011,04,28,16,01,11.00
2011,04,28,16,02,11.10
2011,04,28,16,03,11.10
2011,04,28,16,04,11.30
2011,04,28,16,05,11.40
2011,04,28,16,06,11.40
2011,04,28,16,07,11.40
2011,04,28,16,08,11.40
2011,04,28,16,09,11.40
2011,04,28,16,10,11.40
2011,04,28,16,11,11.30
2011,04,28,16,12,11.30
2011,04,28,16,13,11.40
2011,04,28,16,14,11.40
2011,04,28,16,15,11.40
2011,04,28,16,16,11.50
2011,04,28,16,17,11.40
2011,04,28,16,18,11.40
2011,04,28,16,19,11.30
2011,04,28,16,20,11.20
2011,04,28,16,21,11.20
2011,04,28,16,22,11.30
2011,04,28,16,23,11.40
2011,04,28,16,24,11.50
2011,04,28,16,25,11.60
2011,04,28,16,26,11.70
2011,04,28,16,27,11.80
2011,04,28,16,28,11.80
2011,04,28,16,29,11.80
2011,04,28,16,30,11.80
2011,04,28,16,31,11.80
2011,04,28,16,32,11.80
2011,04,28,16,33,11.80
2011,04,28,16,34,11.80
2011,04,28,16,35,11.70
2011,04,28,16,36,11.60
2011,04,28,16,37,11.30
2011,04,28,16,38,11.00
2011,04,28,16,39,10.80
2011,04,28,16,40,10.70
2011,04,28,16,41,10.70
2011,04,28,16,42,10.80
2011,04,28,16,43,10.90
2011,04,28,16,44,10.90
2011,04,28,16,45,10.80
2011,04,28,16,46,10.70
2011,04,28,16,47,10.60
2011,04,28,16,48,10.60
2011,04,28,16,49,10.50
2011,04,28,16,50,10.60
2011,04,28,16,51,10.70
2011,04,28,16,52,10.90
2011,04,28,16,53,11.00
2011,04,28,16,54,11.10
2011,04,28,16,55,11.20
2011,04,28,16,56,11.30
2011,04,28,16,57,11.40
2011,04,28,16,58,11.40
2011,04,28,16,59,11.40
2011,04,28,17,00,11.40
2011,04,28,17,01,11.30
2011,04,28,17,02,11.40
2011,04,28,17,03,11.40
2011,04,28,17,04,11.40
2011,04,28,17,05,11.50
2011,04,28,17,06,11.60
2011,04,28,17,07,11.60
2011,04,28,17,08,11.60
2011,04,28,17,09,11.60
2011,04,28,17,10,11.50
2011,04,28,17,11,11.60
2011,04,28,17,12,11.50
2011,04,28,17,13,11.40
2011,04,28,17,14,11.40
2011,04,28,17,15,11.40
2011,04,28,17,16,11.40
2011,04,28,17,17,11.40
2011,04,28,17,18,11.40
2011,04,28,17,19,11.40
2011,04,28,17,20,11.40
2011,04,28,17,21,11.30
2011,04,28,17,22,11.30
2011,04,28,17,23,11.30
2011,04,28,17,24,11.20
2011,04,28,17,25,11.20
2011,04,28,17,26,11.20
2011,04,28,17,27,11.20
2011,04,28,17,28,11.20
2011,04,28,17,29,11.30
2011,04,28,17,30,11.30
2011,04,28,17,31,11.20
2011,04,28,17,32,11.20
2011,04,28,17,33,11.20
2011,04,28,17,34,11.20
2011,04,28,17,35,11.10
2011,04,28,17,36,11.10
2011,04,28,17,37,11.10
2011,04,28,17,38,11.00
2011,04,28,17,39,10.90
2011,04,28,17,40,10.90
2011,04,28,17,41,10.80
2011,04,28,17,42,10.70
2011,04,28,17,43,10.70
2011,04,28,17,44,10.80
2011,04,28,17,45,10.90
2011,04,28,17,46,10.90
2011,04,28,17,47,11.00
2011,04,28,17,48,11.00
2011,04,28,17,49,10.90
2011,04,28,17,50,10.90
2011,04,28,17,51,10.90
2011,04,28,17,52,10.90
2011,04,28,17,53,10.80
2011,04,28,17,54,10.70
2011,04,28,17,55,10.60
2011,04,28,17,56,10.50
2011,04,28,17,57,10.40
2011,04,28,17,58,10.40
2011,04,28,17,59,10.40